Weather in Yangiyer

Uzbekistan     40°16′26″N   68°48′49″E
temp.,
°C
wind,
m/s
gust,
m/s
humid.,
%
clouds,
%
prec.,
mm/h
press.,
hPa
HPBL,
m
18 april, sun
sun1823:00+19ssw4740100 0.0 1017118
02:00+18sw4740100 0.0 1017146
05:00+18sw5843100 0.0 1018183
08:00+19sw4641100 0.0 1021413
11:00+22w6532100 0.0 10211558
14:00+24wsw43259 0.0 10202679
17:00+24wsw442421 0.0 10192829
20:00+20sw33345 0.0 102032
19 april, mon
mon1923:00+18ssw22387 0.0 101917
02:00+16s224264 0.0 101811
05:00+15ese1243100 0.0 101711
08:00+19ese473199 0.0 1017426
11:00+23ese872936 0.0 10151145
14:00+26e432210 0.0 10132168
17:00+26ne2120100 0.0 10112239
20:00+22nne2326100 0.0 101226
20 april, tue
tue2023:00+19e1132100 0.0 101112
02:00+18sse1135100 0.0 101011
05:00+18sw2234100 0.0 101013
08:00+20ssw2339100 0.1 1011118
11:00+22nnw443299 0.1 10131562
14:00+21nnw4536100 0.0 10142010
17:00+21ssw233951 0.0 1012940
20:00+18ese4546100 0.0 101186
21 april, wed
wed2123:00+18s3447100 0.0 100969
02:00+15wsw3372100 0.9 101042
05:00+13w2385100 2.1 101159
08:00+14w458575 0.5 1014448
11:00+14nw7879100 3.1 1016885
14:00+13wnw5670100 1.4 1018787
17:00+14sw446567 1.5 1018536
20:00+14wsw346696 0.1 1020123
22 april, thu
thu2223:00+11nnw367247 0.1 1021215
02:00+8w22792 0.0 102233
05:00+7wnw23851 0.0 102461
08:00+9w11745 0.0 1025431
11:00+14nnw224933 0.0 1024937
14:00+17nnw22322 0.0 10241237
17:00+19n22271 0.0 10231337
20:00+15wsw22400 0.0 102412